Total_Precipitation_Accumulation
1.19 1.05 1.63 1.57 1.35 1.18 1.10 1.08 1.09 1.15 1.14 1.04 0.95 0.81 0.67 0.59 0.55 0.56 0.61 0.61 0.55 0.53 0.59 0.63 0.61 0.61 0.53 0.51 0.59 0.73 0.87 0.88 0.80 0.77 0.84 0.94 0.97 1.04 1.28 1.48 1.56 1.68 1.58
0.84 0.91 1.51 1.48 1.30 1.15 1.10 1.12 1.10 1.07 1.02 0.97 0.95 0.77 0.69 0.59 0.57 0.56 0.53 0.56 0.53 0.53 0.56 0.59 0.63 0.65 0.56 0.55 0.68 0.84 0.91 0.92 0.83 0.85 1.07 1.16 1.13 1.16 1.27 1.40 1.51 1.64 1.59
0.79 0.81 1.13 1.38 1.32 1.20 1.09 1.06 1.06 1.03 0.99 0.98 0.93 0.84 0.76 0.66 0.56 0.52 0.48 0.47 0.49 0.53 0.58 0.59 0.62 0.62 0.60 0.64 0.75 0.87 0.88 0.93 0.99 1.10 1.42 1.77 1.41 1.22 1.18 1.28 1.31 1.36 1.48
0.72 0.79 1.07 1.40 1.34 1.24 1.18 1.18 1.16 1.05 0.97 0.97 0.90 0.83 0.78 0.72 0.63 0.62 0.62 0.52 0.54 0.55 0.57 0.56 0.56 0.59 0.63 0.70 0.78 0.79 0.83 0.98 1.14 1.22 1.44 1.67 1.62 1.35 1.30 1.43 1.45 1.36 1.44
0.74 0.79 1.18 1.50 1.35 1.25 1.25 1.34 1.30 1.19 1.07 0.97 0.90 0.87 0.82 0.77 0.75 0.80 0.70 0.64 0.65 0.64 0.64 0.66 0.67 0.69 0.74 0.80 0.79 0.79 0.93 1.09 1.22 1.15 1.26 1.45 1.88 1.74 1.43 1.53 1.60 1.44 1.36
0.63 0.68 1.06 1.50 1.36 1.22 1.21 1.35 1.28 1.15 1.14 1.06 1.00 0.96 0.92 0.89 0.92 0.89 0.81 0.78 0.74 0.73 0.71 0.74 0.76 0.82 0.86 0.84 0.86 0.93 1.09 1.17 1.14 1.26 1.33 1.44 1.79 1.79 1.40 1.35 1.37 1.36 1.33
0.63 0.63 0.87 1.31 1.28 1.15 1.14 1.23 1.20 1.15 1.17 1.06 0.99 0.98 0.99 0.98 1.02 1.07 1.02 0.92 0.88 0.86 0.83 0.82 0.80 0.79 0.83 0.91 0.94 1.00 1.15 1.08 1.05 1.35 1.34 1.54 1.64 1.60 1.29 1.22 1.25 1.34 1.49
0.72 0.61 0.73 1.09 1.15 1.09 1.12 1.17 1.17 1.12 1.05 0.92 0.93 0.97 0.99 1.00 1.07 1.13 1.10 1.01 0.99 0.96 0.97 0.96 0.94 0.88 0.88 0.91 1.02 1.06 1.12 0.98 0.83 1.09 1.28 1.56 1.79 1.68 1.27 1.18 1.24 1.29 1.54
1.07 0.89 0.81 0.84 0.89 0.98 1.06 1.10 1.24 1.28 1.07 0.91 0.87 0.88 0.88 0.88 0.92 0.99 1.02 0.98 0.96 0.98 1.00 1.00 0.99 0.97 0.98 0.96 0.99 1.06 1.08 1.05 0.96 1.02 1.01 1.48 1.82 1.69 1.40 1.26 1.18 1.23 1.46
1.08 1.04 0.97 0.95 0.91 0.90 0.93 1.12 1.39 1.50 1.31 1.04 0.92 0.86 0.87 0.83 0.81 0.89 0.89 0.95 0.99 1.05 1.09 1.11 1.09 1.04 1.11 1.13 1.13 1.12 1.08 0.92 0.80 0.84 1.02 1.41 1.85 1.74 1.54 1.29 1.10 1.04 1.24
1.00 1.00 0.94 0.95 0.96 1.06 1.07 1.16 1.42 1.58 1.52 1.15 0.95 0.92 0.83 0.69 0.81 0.87 0.81 1.03 1.13 1.21 1.22 1.25 1.20 1.12 1.14 1.15 1.19 1.18 0.95 0.73 0.75 0.85 1.11 1.61 2.03 1.98 1.62 1.31 1.13 1.05 1.04
0.85 0.84 0.82 0.83 0.80 0.84 0.90 1.23 1.45 1.35 1.42 1.14 1.08 1.00 0.92 0.95 0.99 0.85 0.80 1.04 1.18 1.28 1.26 1.24 1.24 1.17 1.03 0.88 0.88 0.92 0.72 0.61 0.66 0.78 1.16 1.74 2.19 2.21 1.83 1.45 1.18 1.07 1.08
0.72 0.64 0.57 0.61 0.59 0.61 0.72 0.89 1.17 1.42 1.46 1.42 1.36 1.26 1.19 1.10 0.94 0.83 0.82 0.86 0.97 1.07 1.02 1.10 1.11 1.00 0.94 0.87 0.85 0.77 0.70 0.61 0.67 0.77 1.22 1.76 2.18 2.27 2.01 1.55 1.26 1.20 1.31
0.76 0.74 0.59 0.50 0.52 0.52 0.55 0.68 0.92 1.13 1.27 1.28 1.20 1.11 1.29 1.23 1.01 0.90 0.97 0.98 0.98 1.05 1.20 1.24 1.19 1.10 0.99 0.88 0.86 0.81 0.77 0.76 0.74 0.82 1.25 1.47 1.86 2.09 2.16 1.92 1.56 1.34 1.33
0.80 0.83 0.72 0.53 0.46 0.48 0.51 0.56 0.63 0.86 1.01 1.01 1.14 1.11 1.15 1.14 1.02 0.93 0.94 1.08 1.06 1.09 1.25 1.36 1.21 1.15 1.16 1.08 1.02 1.00 0.98 0.90 0.90 0.88 1.10 1.25 1.45 1.88 2.30 2.29 1.98 1.56 1.44
0.70 0.72 0.68 0.58 0.55 0.51 0.48 0.48 0.52 0.56 0.72 0.74 0.77 0.76 0.95 1.07 1.05 1.07 0.98 1.05 1.20 1.25 1.25 1.26 1.23 1.16 1.12 1.14 1.11 1.15 1.14 0.97 0.98 0.98 1.06 1.08 1.12 1.39 1.95 2.33 2.13 1.77 1.68
0.58 0.58 0.60 0.62 0.64 0.62 0.61 0.59 0.56 0.56 0.59 0.66 0.73 0.75 0.88 0.99 1.06 1.07 0.96 1.00 1.15 1.34 1.32 1.26 1.20 1.21 1.07 1.04 1.14 1.23 1.23 1.15 1.13 1.14 1.09 1.08 0.99 1.11 1.50 2.04 2.21 2.03 1.97
0.45 0.43 0.49 0.52 0.56 0.61 0.65 0.68 0.63 0.66 0.68 0.66 0.71 0.71 0.75 0.90 1.06 1.15 1.08 1.03 1.19 1.38 1.53 1.57 1.41 1.35 1.25 1.18 1.24 1.24 1.21 1.28 1.26 1.22 1.16 1.19 1.18 1.04 1.12 1.39 1.75 2.07 2.20
0.34 0.31 0.34 0.40 0.45 0.51 0.58 0.67 0.68 0.70 0.84 0.92 0.81 0.70 0.75 0.89 1.00 1.20 1.28 1.23 1.27 1.43 1.49 1.49 1.51 1.42 1.40 1.34 1.22 1.18 1.16 1.28 1.36 1.19 1.15 1.18 1.28 1.24 1.14 0.98 1.09 1.32 1.74
0.29 0.27 0.29 0.35 0.36 0.38 0.48 0.64 0.74 0.71 0.81 1.03 1.06 1.05 1.09 1.15 1.22 1.37 1.46 1.44 1.44 1.51 1.49 1.61 1.79 1.62 1.45 1.45 1.32 1.19 1.14 1.19 1.25 1.25 1.24 1.21 1.28 1.25 1.18 1.01 0.97 0.83 1.04
0.22 0.22 0.26 0.30 0.33 0.35 0.43 0.54 0.63 0.73 0.91 1.12 1.18 1.25 1.39 1.41 1.43 1.56 1.66 1.69 1.63 1.55 1.61 1.78 2.14 2.03 1.67 1.51 1.55 1.41 1.25 1.20 1.26 1.21 1.25 1.34 1.27 1.22 1.29 1.20 1.02 0.92 0.80
0.14 0.14 0.19 0.28 0.37 0.43 0.49 0.62 0.77 1.01 1.12 1.26 1.42 1.41 1.44 1.49 1.53 1.60 1.81 1.92 1.86 1.84 1.94 1.97 2.20 2.35 2.08 1.88 1.88 2.04 1.81 1.59 1.26 1.03 1.08 1.16 1.18 1.25 1.26 1.29 1.18 1.02 0.97
0.11 0.13 0.19 0.33 0.52 0.73 0.84 1.06 1.33 1.59 1.67 1.60 1.59 1.64 1.63 1.66 1.72 1.70 1.81 2.01 1.98 1.94 1.99 2.17 2.46 2.75 2.66 2.40 2.20 2.34 2.09 1.82 1.69 1.19 0.96 1.02 1.12 1.24 1.28 1.36 1.34 1.21 1.15
0.17 0.25 0.41 0.64 0.94 1.19 1.34 1.53 1.74 1.85 1.89 1.82 1.83 1.81 1.80 1.71 1.65 1.65 1.78 1.98 2.13 2.21 2.26 2.32 2.33 2.68 2.90 2.72 2.58 2.29 2.00 1.86 1.97 1.73 1.24 1.00 1.07 1.13 1.20 1.23 1.33 1.35 1.31
0.46 0.64 0.92 1.17 1.41 1.56 1.61 1.70 1.90 2.05 2.20 2.22 2.10 1.95 1.83 1.80 1.74 1.66 1.71 1.78 1.83 1.92 2.04 2.16 2.24 2.47 2.63 2.76 2.74 2.55 2.29 2.13 1.72 1.69 1.69 1.44 1.19 0.98 1.01 1.15 1.34 1.39 1.38
0.89 1.07 1.27 1.41 1.55 1.55 1.55 1.60 1.73 1.92 2.08 2.10 2.11 2.08 1.94 1.81 1.72 1.63 1.57 1.66 1.69 1.70 1.84 1.95 2.04 2.28 2.46 2.57 2.64 2.54 2.42 2.36 2.11 1.85 1.68 1.64 1.50 1.18 1.01 1.02 1.13 1.24 1.31